TimeCDT,TemperatureF,Dew PointF,Humidity,Sea Level PressureIn,VisibilityMPH,Wind Direction,Wind SpeedMPH,Gust SpeedMPH,PrecipitationIn,Events,Conditions,WindDirDegrees,DateUTC
12:53 AM,50.0,48.0,93,30.40,10.0,Calm,Calm,-,0.01,,Clear,0,2012-09-14 05:53:00
1:53 AM,50.0,48.0,93,30.40,10.0,NW,3.5,-,N/A,,Clear,320,2012-09-14 06:53:00
2:53 AM,50.0,48.0,93,30.38,10.0,Calm,Calm,-,N/A,,Clear,0,2012-09-14 07:53:00
3:53 AM,48.0,46.0,93,30.36,9.0,WNW,3.5,-,N/A,,Unknown,290,2012-09-14 08:53:00
4:53 AM,48.9,46.0,90,30.37,10.0,NNW,4.6,-,N/A,,Unknown,330,2012-09-14 09:53:00
5:53 AM,48.9,46.0,90,30.38,10.0,NNW,3.5,-,N/A,,Clear,330,2012-09-14 10:53:00
6:53 AM,46.9,45.0,93,30.38,10.0,WNW,3.5,-,N/A,,Clear,290,2012-09-14 11:53:00
7:53 AM,48.9,44.1,83,30.40,10.0,NW,3.5,-,N/A,,Clear,310,2012-09-14 12:53:00
8:53 AM,53.1,48.0,83,30.41,10.0,Calm,Calm,-,N/A,,Clear,0,2012-09-14 13:53:00
9:53 AM,57.0,50.0,77,30.41,10.0,Calm,Calm,-,N/A,,Unknown,0,2012-09-14 14:53:00
10:53 AM,61.0,48.9,64,30.41,10.0,Calm,Calm,-,N/A,,Unknown,0,2012-09-14 15:53:00
11:53 AM,64.0,42.1,45,30.41,10.0,SW,3.5,-,N/A,,Unknown,230,2012-09-14 16:53:00
12:53 PM,64.9,43.0,45,30.40,10.0,Variable,3.5,-,N/A,,Clear,0,2012-09-14 17:53:00
1:53 PM,66.0,43.0,43,30.38,10.0,SSE,4.6,-,N/A,,Clear,160,2012-09-14 18:53:00
2:53 PM,68.0,46.0,45,30.36,10.0,SSW,4.6,-,N/A,,Clear,200,2012-09-14 19:53:00
3:53 PM,69.1,43.0,39,30.35,10.0,SSE,6.9,-,N/A,,Clear,150,2012-09-14 20:53:00
4:53 PM,69.1,45.0,42,30.34,10.0,South,5.8,-,N/A,,Clear,170,2012-09-14 21:53:00
7:53 PM,62.1,46.0,56,30.32,10.0,SSW,3.5,-,0.01,,Clear,200,2012-09-15 00:53:00
8:53 PM,59.0,48.0,67,30.32,10.0,SSW,4.6,-,0.01,,Clear,210,2012-09-15 01:53:00
9:53 PM,60.1,46.0,60,30.32,10.0,SSW,4.6,-,0.01,,Clear,200,2012-09-15 02:53:00
10:53 PM,55.9,46.9,72,30.33,10.0,SW,3.5,-,N/A,,Clear,230,2012-09-15 03:53:00
11:53 PM,57.0,44.1,62,30.32,10.0,SW,3.5,-,0.01,,Clear,220,2012-09-15 04:53:00